2026-027A

Last updated on Sun Mar 15 2026 00:02:06 GMT+0000 (Coordinated Universal Time)

1 67746U 26027A 26073.58216295 .00012249 00000+0 60764-3 0 9996 2 67746 97.4901 202.5443 0010536 177.8628 182.2652 15.17812802 4607
UTC large
Height (km)
Speed (km/s)
/
Latitude / Longitude
Inclination (degrees)
Orbital Period (minutes)
Azimuth
Elevation
Range (km)
Doppler Factor

Next 0 passes for location: London (51.5072 / 0.1276)

Sorry there are no passes over London.